Simultaneous Nadir Overpasses (SNOs) Predictions

Prediction of SNOs between AQUA and NOAA-19 Satellite Orbit:

Table of predicted SNOs for the next 14.0 days since TLE Epoch: 3/5/2022
Index Date (AQUA) Time (AQUA) Lat,Lon (AQUA) SZA (AQUA ) Date (NOAA-19) Time (NOAA-19) Lat,Lon (NOAA-19) SZA (NOAA-19 ) Distance(km) Time Diff (sec)
1 03/05/2022 22:01:13 -77.92, 11.61 95.57 03/05/2022 22:00:32 -77.91, 11.56 95.56 1.96 41
2 03/05/2022 22:50:41 77.96, 179.10 84.47 03/05/2022 22:51:32 77.96, 179.11 84.46 0.72 51
3 03/08/2022 03:34:50 77.84, 108.58 83.46 03/08/2022 03:33:38 77.77, 107.60 83.49 24.34 72
4 03/08/2022 04:24:18 -77.95, -84.24 96.43 03/08/2022 04:24:33 -77.94, -84.23 96.44 1.12 15
5 03/10/2022 09:57:56 77.92, 12.46 82.67 03/10/2022 09:57:35 77.92, 12.52 82.67 1.29 21
6 03/10/2022 10:47:22 -77.93,-179.94 97.34 03/10/2022 10:48:34 -77.96, 179.97 97.33 3.32 72
7 03/12/2022 15:31:32 -77.88, 109.24 98.28 03/12/2022 15:30:37 -77.89, 109.19 98.24 1.82 55
8 03/12/2022 16:21:00 77.92, -83.30 81.77 03/12/2022 16:21:36 77.91, -83.44 81.76 3.39 36
9 03/14/2022 21:54:36 -77.89, 13.44 99.17 03/14/2022 21:54:38 -77.91, 13.35 99.14 2.79 2
10 03/17/2022 03:28:14 77.91, 109.97 79.97 03/17/2022 03:27:38 77.89, 110.07 79.95 3.33 36



Historial Predications of SNOs between AQUA and NOAA-19
